TimeEST,TemperatureF,Dew PointF,Humidity,Sea Level PressureIn,VisibilityMPH,Wind Direction,Wind SpeedMPH,Gust SpeedMPH,PrecipitationIn,Events,Conditions,WindDirDegrees,DateUTC
12:53 AM,5.0,-7.1,58,29.89,10.0,NW,5.8,-,N/A,,Clear,310,2014-01-23 05:53:00
1:53 AM,3.9,-8.0,58,29.92,10.0,WNW,4.6,-,N/A,,Clear,300,2014-01-23 06:53:00
2:53 AM,3.9,-8.0,58,29.95,10.0,WNW,3.5,-,N/A,,Clear,300,2014-01-23 07:53:00
3:53 AM,3.9,-7.1,60,29.96,10.0,NW,3.5,-,N/A,,Clear,310,2014-01-23 08:53:00
4:53 AM,3.9,-8.0,58,29.97,10.0,WNW,4.6,-,N/A,,Clear,300,2014-01-23 09:53:00
5:53 AM,1.9,-8.0,63,29.99,10.0,West,3.5,-,N/A,,Clear,270,2014-01-23 10:53:00
6:53 AM,5.0,-7.1,58,30.01,10.0,WNW,8.1,-,N/A,,Overcast,290,2014-01-23 11:53:00
7:53 AM,6.1,-7.1,55,30.03,10.0,West,6.9,-,N/A,,Overcast,270,2014-01-23 12:53:00
8:53 AM,8.1,-6.0,53,30.04,10.0,West,4.6,-,N/A,,Mostly Cloudy,280,2014-01-23 13:53:00
9:53 AM,10.9,-5.1,49,30.05,10.0,WNW,10.4,-,N/A,,Mostly Cloudy,290,2014-01-23 14:53:00
10:53 AM,14.0,-2.9,47,30.04,10.0,West,9.2,-,N/A,,Overcast,270,2014-01-23 15:53:00
11:53 AM,18.0,-2.9,40,30.01,10.0,West,4.6,-,N/A,,Scattered Clouds,280,2014-01-23 16:53:00
12:53 PM,19.0,-0.9,42,30.00,10.0,Variable,6.9,-,N/A,,Clear,0,2014-01-23 17:53:00
1:53 PM,19.9,-2.0,38,30.00,10.0,West,6.9,-,N/A,,Clear,260,2014-01-23 18:53:00
2:53 PM,21.0,-2.0,36,30.01,10.0,West,12.7,-,N/A,,Clear,270,2014-01-23 19:53:00
3:53 PM,19.0,-4.0,36,30.03,10.0,West,11.5,-,N/A,,Clear,270,2014-01-23 20:53:00
4:53 PM,18.0,-2.9,40,30.06,10.0,West,15.0,-,N/A,,Clear,260,2014-01-23 21:53:00
5:53 PM,17.1,-2.9,41,30.09,10.0,West,13.8,-,N/A,,Clear,280,2014-01-23 22:53:00
6:53 PM,16.0,-4.0,41,30.11,10.0,West,15.0,-,N/A,,Clear,280,2014-01-23 23:53:00
7:53 PM,15.1,-2.0,47,30.14,10.0,WNW,12.7,-,N/A,,Clear,290,2014-01-24 00:53:00
8:53 PM,14.0,-2.9,47,30.16,10.0,WNW,13.8,-,N/A,,Clear,290,2014-01-24 01:53:00
9:53 PM,12.9,-2.9,49,30.18,10.0,West,10.4,-,N/A,,Clear,280,2014-01-24 02:53:00
10:53 PM,12.0,-4.0,49,30.18,10.0,WNW,10.4,-,N/A,,Clear,290,2014-01-24 03:53:00
11:53 PM,12.0,-4.0,49,30.18,10.0,West,15.0,20.7,N/A,,Clear,280,2014-01-24 04:53:00